McCall, ID

12:47 PM MDT on August 18, 2017 (GMT -0600)
McCall

Weather History for KMYL - November, 2011

Change the Weather History Date:

Tuesday, November 29, 2011

  Actual Average Record
Temperature  
Mean Temperature 27 °F 22 °F  
Max Temperature 32 °F 30 °F 60 °F (1966)
Min Temperature 22 °F 15 °F -16 °F (2006)
Degree Days  
Heating Degree Days 38 43  
Month to date heating degree days 1092 1053  
Since 1 July heating degree days 2121 2596  
Cooling Degree Days 0 0  
Month to date cooling degree days 0 0  
Year to date cooling degree days 56 25  
Moisture  
Dew Point 27 °F    
Average Humidity 93    
Maximum Humidity 100    
Minimum Humidity 85    
Precipitation  
Precipitation 0.00 in 0.08 in 0.79 in (1996)
Month to date precipitation 1.49 2.64  
Year to date precipitation 22.76 17.96  
Sea Level Pressure  
Sea Level Pressure 30.32 in    
Wind  
Wind Speed 0 mph (WSW)    
Max Wind Speed 6 mph    
Max Gust Speed 7 mph    
Visibility 4 miles    
Events Fog    
T = Trace of Precipitation, MM = Missing Value Source: NWS Daily Summary

Daily Weather History Graph

Daily Weather History Graph

Search for Another Location

Airport or City:

Trip Planner

Search our weather history database for the weather conditions in past years. The results will help you decide how hot, cold, wet, or windy it might be!

Date:

Astronomy

Nov. 29, 2011 Rise Set
Actual Time 7:59 AM MST 5:05 PM MST
Civil Twilight 7:26 AM MST 5:38 PM MST
Nautical Twilight 6:50 AM MST 6:14 PM MST
Astronomical Twilight 6:14 AM MST 6:50 PM MST
Moon 11:43 AM MST (11/29) 10:09 PM MST (11/29)
Length of Visible Light 10h 11m
Length of Day
9h 06m
Waxing Crescent, 25% of the Moon is Illuminated
Nov 29
Waxing Crescent
Dec 2
First Quarter
Dec 10
Full
Dec 17
Last Quarter
Dec 24
New

Hourly Weather History & Observations

Time (MST) Temp. Windchill Dew Point Humidity Pressure Visibility Wind Dir Wind Speed Gust Speed Precip Events Conditions
12:09 AM 23.0 °F - 21.2 °F 93% 30.36 in 1.5 mi Calm Calm - N/A   Scattered Clouds
12:11 AM 23.0 °F - 21.2 °F 93% 30.36 in 1.0 mi Calm Calm - N/A   Mostly Cloudy
12:18 AM 23.0 °F - 21.2 °F 93% 30.36 in 0.2 mi Calm Calm - N/A Fog Light Freezing Fog
12:23 AM 23.0 °F - 21.2 °F 93% 30.37 in 0.2 mi Calm Calm - N/A Fog Light Freezing Fog
12:29 AM 23.0 °F - 21.2 °F 93% 30.36 in 1.5 mi Calm Calm - N/A   Overcast
12:32 AM 23.0 °F - 21.2 °F 93% 30.36 in 4.0 mi Calm Calm - N/A   Overcast
12:46 AM 24.8 °F - 23.0 °F 93% 30.36 in 1.5 mi Calm Calm - N/A   Overcast
12:51 AM 25.0 °F - 24.1 °F 96% 30.43 in 1.2 mi Calm Calm - N/A   Overcast
12:56 AM 24.8 °F - 24.8 °F 100% 30.35 in 3.0 mi Calm Calm - N/A   Overcast
1:51 AM 27.0 °F - 26.1 °F 96% 30.42 in 7.0 mi Calm Calm - N/A   Overcast
2:14 AM 26.6 °F - 26.6 °F 100% 30.35 in 1.8 mi Calm Calm - N/A   Overcast
2:17 AM 26.6 °F - 26.6 °F 100% 30.35 in 0.8 mi Calm Calm - N/A   Mist
4:51 AM 27.0 °F - 27.0 °F 100% 30.43 in 0.2 mi Calm Calm - N/A Fog Light Freezing Fog
5:51 AM 25.0 °F - 24.1 °F 96% 30.44 in 0.5 mi Calm Calm - N/A Fog Light Freezing Fog
6:51 AM 26.1 °F - 24.1 °F 92% 30.43 in 0.5 mi Calm Calm - N/A Fog Light Freezing Fog
6:58 AM 26.6 °F - 24.8 °F 93% 30.34 in 1.2 mi Calm Calm - N/A   Overcast
7:12 AM 26.6 °F - 24.8 °F 93% 30.34 in 0.8 mi Calm Calm - N/A   Overcast
7:51 AM 27.0 °F - 24.1 °F 89% 30.43 in 0.5 mi Calm Calm - N/A Fog Light Freezing Fog
8:04 AM 26.6 °F - 24.8 °F 93% 30.33 in 1.2 mi Calm Calm - N/A   Overcast
8:15 AM 26.6 °F - 24.8 °F 93% 30.34 in 0.2 mi Calm Calm - N/A Fog Light Freezing Fog
8:51 AM 28.0 °F - 25.0 °F 88% 30.44 in 0.2 mi Calm Calm - N/A Fog Light Freezing Fog
9:51 AM 28.9 °F - 25.0 °F 85% 30.45 in 0.2 mi Calm Calm - N/A Fog Light Freezing Fog
10:13 AM 28.4 °F 24.6 °F 26.6 °F 93% 30.34 in 1.2 mi South 3.5 mph - N/A   Overcast
10:17 AM 28.4 °F - 26.6 °F 93% 30.34 in 0.8 mi Calm Calm - N/A   Overcast
10:29 AM 28.4 °F - 26.6 °F 93% 30.35 in 1.2 mi Calm Calm - N/A   Overcast
10:40 AM 30.2 °F - 26.6 °F 86% 30.35 in 2.0 mi Calm Calm - N/A   Overcast
10:51 AM 30.0 °F - 26.1 °F 85% 30.45 in 2.5 mi Calm Calm - N/A   Overcast
10:57 AM 30.2 °F - 26.6 °F 86% 30.34 in 4.0 mi Calm Calm - N/A   Overcast
11:20 AM 30.2 °F - 26.6 °F 86% 30.32 in 10.0 mi Calm Calm - N/A   Overcast
11:51 AM 30.0 °F - 27.0 °F 88% 30.41 in 10.0 mi Calm Calm - N/A   Overcast
12:11 PM 30.2 °F - 28.4 °F 93% 30.29 in 10.0 mi Calm Calm - N/A   Overcast
12:51 PM 30.9 °F - 28.0 °F 89% 30.38 in 10.0 mi Calm Calm - N/A   Overcast
1:51 PM 30.9 °F - 30.0 °F 96% 30.34 in 10.0 mi Calm Calm - N/A   Overcast
2:51 PM 30.9 °F - 30.0 °F 96% 30.31 in 10.0 mi Calm Calm - N/A   Overcast
3:51 PM 30.9 °F - 30.0 °F 96% 30.29 in 10.0 mi Calm Calm - N/A   Overcast
4:51 PM 30.9 °F - 30.9 °F 100% 30.27 in 9.0 mi Calm Calm - N/A   Overcast
5:15 PM 32.0 °F - 30.2 °F 93% 30.16 in 10.0 mi Calm Calm - N/A   Overcast
5:51 PM 30.9 °F - 30.0 °F 96% 30.25 in 7.0 mi Calm Calm - N/A   Overcast
6:51 PM 30.9 °F - 30.9 °F 100% 30.22 in 10.0 mi Calm Calm - N/A   Overcast
7:51 PM 30.9 °F - 30.0 °F 96% 30.22 in 8.0 mi Calm Calm - N/A   Overcast
8:51 PM 30.9 °F - 30.9 °F 100% 30.21 in 8.0 mi Calm Calm - N/A   Overcast
9:48 PM 32.0 °F 26.4 °F 30.2 °F 93% 30.10 in 10.0 mi West 5.8 mph - N/A   Overcast
9:51 PM 32.0 °F 28.7 °F 30.9 °F 96% 30.18 in 9.0 mi WNW 3.5 mph - N/A   Overcast
10:51 PM 30.9 °F - 30.9 °F 100% 30.15 in 7.0 mi Calm Calm - N/A   Overcast
11:16 PM 30.2 °F - 30.2 °F 100% 30.06 in 7.0 mi Calm Calm - N/A   Overcast
11:51 PM 30.9 °F - 30.9 °F 100% 30.12 in 4.0 mi Calm Calm - N/A   Overcast